EDW632 LSZH-LGMK

Flight info

Callsign EDW632
Flight time N/A
Altitude 35000
Route DEGES Z2 XEBIX L607 ELMEM N606 GIRIS DCT TISAX DCT NAXAV DCT NIVAS DCT UPIRO DCT PEVAL DCT LOS DCT EBITA DCT ZDA DCT SPL DCT KONUV DCT LASTI DCT LEBGA DCT PETAK DCT PINDO UL607 KEA UL995 VARIX
Aircraft A320/M-SDE3FGHIRWY/LB1

Departure

Time N/A
Airport Zürich Airport (LSZH)

Arrival

Time 2026-04-29 18:01
Airport Mykonos Island National Airport (LGMK)
Time Latitude Longitude Altitude Speed Heading
2026-04-29 17:10 40.70335 20.64718 35054 ft 482 kts 135°
2026-04-29 17:10 40.68021 20.67942 35068 ft 483 kts 135°
2026-04-29 17:11 40.63402 20.74359 35054 ft 484 kts 135°
2026-04-29 17:11 40.58768 20.80794 35054 ft 484 kts 135°
2026-04-29 17:12 40.54126 20.87222 35057 ft 483 kts 137°
2026-04-29 17:12 40.49936 20.92088 35057 ft 482 kts 141°
2026-04-29 17:13 40.43992 20.98748 35045 ft 482 kts 141°
2026-04-29 17:13 40.38984 21.04542 35045 ft 482 kts 140°
2026-04-29 17:14 40.33971 21.10402 35048 ft 481 kts 140°
2026-04-29 17:14 40.28952 21.16227 35040 ft 481 kts 140°
2026-04-29 17:15 40.23935 21.22002 35040 ft 481 kts 140°
2026-04-29 17:15 40.18894 21.27789 35025 ft 481 kts 140°
2026-04-29 17:16 40.13865 21.33562 35036 ft 481 kts 140°
2026-04-29 17:16 40.08859 21.39302 35039 ft 480 kts 140°
2026-04-29 17:17 40.03856 21.45023 35032 ft 480 kts 140°
2026-04-29 17:17 39.98823 21.50759 35032 ft 480 kts 140°
2026-04-29 17:18 39.93789 21.56491 35037 ft 479 kts 140°
2026-04-29 17:18 39.88750 21.62212 35030 ft 479 kts 141°
2026-04-29 17:19 39.83740 21.67884 35036 ft 479 kts 140°
2026-04-29 17:19 39.78705 21.73588 35037 ft 479 kts 141°
2026-04-29 17:20 39.73708 21.79237 35045 ft 479 kts 141°
2026-04-29 17:20 39.68668 21.84921 35032 ft 479 kts 141°
2026-04-29 17:21 39.63651 21.90559 35021 ft 479 kts 141°
2026-04-29 17:21 39.58601 21.96220 35022 ft 479 kts 141°
2026-04-29 17:22 39.53548 22.01885 35025 ft 479 kts 141°
2026-04-29 17:22 39.48513 22.07513 35025 ft 479 kts 141°
2026-04-29 17:23 39.43465 22.13146 35025 ft 479 kts 141°
2026-04-29 17:23 39.38442 22.18738 35021 ft 479 kts 141°
2026-04-29 17:24 39.33380 22.24360 35027 ft 479 kts 141°
2026-04-29 17:24 39.28321 22.29968 35033 ft 478 kts 141°
2026-04-29 17:25 39.23279 22.35544 35039 ft 478 kts 141°
2026-04-29 17:25 39.18223 22.41133 35043 ft 478 kts 141°
2026-04-29 17:26 39.13180 22.46702 35047 ft 478 kts 141°
2026-04-29 17:26 39.08123 22.52272 35037 ft 478 kts 141°
2026-04-29 17:27 39.03049 22.57845 35043 ft 478 kts 141°
2026-04-29 17:27 38.98014 22.63353 35050 ft 478 kts 141°
2026-04-29 17:28 38.92948 22.68894 35053 ft 478 kts 141°
2026-04-29 17:28 38.87878 22.74438 35056 ft 477 kts 141°
2026-04-29 17:29 38.82811 22.79965 35051 ft 478 kts 141°
2026-04-29 17:29 38.78585 22.84559 35050 ft 478 kts 141°
2026-04-29 17:30 38.72682 22.90962 35049 ft 478 kts 141°
2026-04-29 17:30 38.67595 22.96470 35049 ft 478 kts 141°
2026-04-29 17:31 38.62535 23.01939 35052 ft 478 kts 141°
2026-04-29 17:31 38.57436 23.07439 35054 ft 478 kts 141°
2026-04-29 17:32 38.52349 23.12933 35052 ft 479 kts 141°
2026-04-29 17:32 38.47275 23.18395 35054 ft 479 kts 141°
2026-04-29 17:33 38.42171 23.23867 35058 ft 479 kts 141°
2026-04-29 17:33 38.37063 23.29334 35060 ft 479 kts 141°
2026-04-29 17:34 38.31987 23.34758 35065 ft 479 kts 141°
2026-04-29 17:34 38.27466 23.40926 34461 ft 478 kts 126°
2026-04-29 17:35 38.24894 23.45563 33316 ft 479 kts 125°
2026-04-29 17:35 38.21768 23.51354 31840 ft 481 kts 124°
2026-04-29 17:35 38.19880 23.54865 30929 ft 482 kts 124°
2026-04-29 17:36 38.17974 23.58383 29990 ft 484 kts 125°
2026-04-29 17:36 38.16047 23.61909 28895 ft 485 kts 125°
2026-04-29 17:36 38.14105 23.65432 27796 ft 486 kts 125°
2026-04-29 17:36 38.12151 23.68956 26685 ft 487 kts 125°
2026-04-29 17:37 38.10189 23.72485 25562 ft 488 kts 125°
2026-04-29 17:37 38.08257 23.75957 24454 ft 489 kts 125°
2026-04-29 17:37 38.06298 23.79488 23459 ft 487 kts 125°
2026-04-29 17:37 38.04369 23.82975 22600 ft 479 kts 125°
2026-04-29 17:38 38.02468 23.86417 21746 ft 473 kts 125°
2026-04-29 17:38 38.00579 23.89832 20946 ft 468 kts 125°
2026-04-29 17:38 37.98710 23.93194 20174 ft 463 kts 125°
2026-04-29 17:38 37.96880 23.96473 19455 ft 459 kts 125°
2026-04-29 17:39 37.95039 23.99765 18747 ft 455 kts 125°
2026-04-29 17:39 37.93214 24.03028 18015 ft 450 kts 125°
2026-04-29 17:39 37.91414 24.06254 17289 ft 445 kts 125°
2026-04-29 17:39 37.89631 24.09458 16589 ft 441 kts 125°
2026-04-29 17:40 37.87901 24.12572 15912 ft 437 kts 125°
2026-04-29 17:40 37.86156 24.15703 15256 ft 433 kts 125°
2026-04-29 17:40 37.84418 24.18804 14607 ft 429 kts 125°
2026-04-29 17:40 37.82687 24.21880 13985 ft 426 kts 125°
2026-04-29 17:41 37.80976 24.24921 13310 ft 422 kts 125°
2026-04-29 17:41 37.79278 24.27946 12652 ft 418 kts 125°
2026-04-29 17:41 37.77629 24.30888 12014 ft 413 kts 125°
2026-04-29 17:41 37.75969 24.33840 11365 ft 409 kts 125°
2026-04-29 17:42 37.74342 24.36727 11093 ft 394 kts 125°
2026-04-29 17:42 37.72785 24.39483 10962 ft 377 kts 125°
2026-04-29 17:42 37.71294 24.42120 10835 ft 361 kts 125°
2026-04-29 17:42 37.69866 24.44644 10714 ft 346 kts 125°
2026-04-29 17:43 37.68495 24.47068 10589 ft 333 kts 125°
2026-04-29 17:43 37.67175 24.49402 10473 ft 321 kts 125°
2026-04-29 17:43 37.65904 24.51653 10351 ft 309 kts 125°
2026-04-29 17:43 37.64688 24.53802 10157 ft 302 kts 125°
2026-04-29 17:44 37.63458 24.55972 9837 ft 299 kts 125°
2026-04-29 17:44 37.62270 24.58066 9477 ft 296 kts 125°
2026-04-29 17:44 37.61070 24.60178 9127 ft 294 kts 125°
2026-04-29 17:44 37.59880 24.62266 9068 ft 293 kts 125°
2026-04-29 17:45 37.58682 24.64365 9068 ft 294 kts 125°
2026-04-29 17:45 37.57483 24.66466 9067 ft 295 kts 125°
2026-04-29 17:45 37.56280 24.68559 9067 ft 295 kts 125°
2026-04-29 17:45 37.55086 24.70627 9066 ft 295 kts 125°
2026-04-29 17:46 37.53876 24.72722 9064 ft 295 kts 125°
2026-04-29 17:46 37.52669 24.74812 9063 ft 295 kts 125°
2026-04-29 17:46 37.51459 24.76905 9063 ft 295 kts 125°
2026-04-29 17:46 37.50247 24.79000 9061 ft 295 kts 125°
2026-04-29 17:47 37.49041 24.81085 9059 ft 295 kts 125°
2026-04-29 17:47 37.47847 24.83151 9058 ft 295 kts 125°
2026-04-29 17:47 37.46637 24.85240 8885 ft 293 kts 125°
2026-04-29 17:47 37.45439 24.87312 8480 ft 291 kts 125°
2026-04-29 17:48 37.44252 24.89366 8111 ft 289 kts 125°
2026-04-29 17:48 37.43074 24.91405 7746 ft 287 kts 125°
2026-04-29 17:48 37.41917 24.93408 7379 ft 285 kts 125°
2026-04-29 17:48 37.40758 24.95418 7055 ft 282 kts 125°
2026-04-29 17:49 37.39607 24.97414 7004 ft 282 kts 125°
2026-04-29 17:49 37.38449 24.99425 7009 ft 283 kts 125°
2026-04-29 17:49 37.37363 25.01489 7011 ft 282 kts 113°
2026-04-29 17:49 37.36880 25.03821 7009 ft 280 kts 92°
2026-04-29 17:50 37.37075 25.06241 7010 ft 278 kts 72°
2026-04-29 17:50 37.37659 25.08562 7012 ft 278 kts 71°
2026-04-29 17:50 37.38241 25.10886 7013 ft 278 kts 71°
2026-04-29 17:50 37.38811 25.13188 7014 ft 278 kts 71°
2026-04-29 17:51 37.39384 25.15518 7015 ft 278 kts 71°
2026-04-29 17:51 37.39955 25.17848 7016 ft 278 kts 71°
2026-04-29 17:51 37.40527 25.20179 7017 ft 278 kts 71°
2026-04-29 17:51 37.41100 25.22510 7019 ft 278 kts 71°
2026-04-29 17:52 37.41671 25.24842 7020 ft 278 kts 71°
2026-04-29 17:52 37.42051 25.26394 7021 ft 278 kts 71°
2026-04-29 17:52 37.42613 25.28695 7022 ft 278 kts 71°
2026-04-29 17:52 37.43228 25.31003 7021 ft 277 kts 63°
2026-04-29 17:53 37.44473 25.32790 7009 ft 274 kts 29°
2026-04-29 17:53 37.46274 25.33414 7009 ft 270 kts 356°
2026-04-29 17:53 37.48054 25.32750 7009 ft 270 kts 328°
2026-04-29 17:53 37.49380 25.31087 7022 ft 273 kts 300°
2026-04-29 17:54 37.49972 25.28804 6793 ft 276 kts 274°
2026-04-29 17:54 37.49657 25.26445 6528 ft 276 kts 246°
2026-04-29 17:54 37.48520 25.24550 6253 ft 277 kts 218°
2026-04-29 17:54 37.46789 25.23506 5973 ft 278 kts 192°
2026-04-29 17:55 37.44869 25.23136 5696 ft 279 kts 186°
2026-04-29 17:55 37.42938 25.22893 5418 ft 275 kts 185°
2026-04-29 17:55 37.41078 25.23033 5149 ft 268 kts 168°
2026-04-29 17:55 37.39276 25.23555 4855 ft 262 kts 166°
2026-04-29 17:56 37.37527 25.24108 4497 ft 253 kts 165°
2026-04-29 17:56 37.35897 25.24724 4154 ft 242 kts 158°
2026-04-29 17:56 37.34364 25.25537 3789 ft 237 kts 156°
2026-04-29 17:56 37.32864 25.26381 3384 ft 233 kts 153°
2026-04-29 17:57 37.31628 25.27621 2984 ft 226 kts 122°
2026-04-29 17:57 37.31138 25.29429 2586 ft 218 kts 89°
2026-04-29 17:57 37.31316 25.31304 2175 ft 216 kts 77°
2026-04-29 17:57 37.31638 25.33100 2018 ft 205 kts 75°
2026-04-29 17:58 37.31950 25.34806 2025 ft 200 kts 75°
2026-04-29 17:58 37.32330 25.36473 2030 ft 197 kts 69°
2026-04-29 17:58 37.33051 25.37829 1999 ft 180 kts 38°
2026-04-29 17:58 37.34141 25.38502 2009 ft 173 kts 10°
2026-04-29 17:59 37.35328 25.38448 1995 ft 171 kts 344°
2026-04-29 17:59 37.36461 25.37972 1746 ft 168 kts 341°
2026-04-29 17:59 37.37494 25.37506 1591 ft 150 kts 341°
2026-04-29 17:59 37.38457 25.37091 1356 ft 144 kts 341°
2026-04-29 18:00 37.39386 25.36681 1150 ft 140 kts 341°
2026-04-29 18:00 37.40302 25.36260 990 ft 139 kts 342°
2026-04-29 18:00 37.41209 25.35854 792 ft 137 kts 340°
2026-04-29 18:00 37.42116 25.35442 584 ft 138 kts 342°
2026-04-29 18:01 37.43010 25.35042 415 ft 131 kts 342°
2026-04-29 18:01 37.43662 25.34757 411 ft 57 kts 340°
2026-04-29 18:01 37.43834 25.34669 411 ft 13 kts
2026-04-29 18:01 37.43803 25.34703 411 ft 12 kts 164°
2026-04-29 18:02 37.43702 25.34727 411 ft 14 kts 185°
2026-04-29 18:02 37.43635 25.34684 408 ft 6 kts 213°
2026-04-29 18:02 37.43623 25.34675 408 ft 0 kts 213°
2026-04-29 18:02 37.43608 25.34669 408 ft 6 kts 189°
2026-04-29 18:03 37.43571 25.34679 406 ft 5 kts 174°
2026-04-29 18:03 37.43551 25.34655 407 ft 4 kts 244°
2026-04-29 18:03 37.43543 25.34629 407 ft 1 kts 251°
2026-04-29 18:03 37.43542 25.34624 407 ft 0 kts 251°